QPF
0.00 0.00 0.00 0.00 0.00 0.00 0.00 0.00 0.00 0.00 0.00 0.00 0.00 0.00 0.00 0.00 0.01 0.05 0.02 0.03 0.01 0.00 0.00 0.00 0.00 0.00 0.00 0.00 0.00 0.00 0.00 0.00 0.00 0.00 0.00 0.00 0.00 0.00 0.00 0.03 0.05 0.00 0.00
0.00 0.00 0.00 0.00 0.00 0.00 0.00 0.00 0.00 0.00 0.00 0.00 0.00 0.00 0.00 0.00 0.00 0.01 0.00 0.01 0.02 0.00 0.00 0.00 0.00 0.00 0.00 0.00 0.00 0.00 0.00 0.00 0.00 0.00 0.00 0.00 0.00 0.00 0.00 0.01 0.05 0.00 0.00
0.00 0.00 0.00 0.00 0.00 0.00 0.00 0.00 0.00 0.00 0.00 0.00 0.00 0.00 0.00 0.00 0.00 0.00 0.00 0.00 0.00 0.00 0.00 0.00 0.00 0.00 0.00 0.00 0.00 0.00 0.00 0.00 0.00 0.00 0.00 0.00 0.00 0.00 0.00 0.01 0.02 0.00 0.00
0.00 0.00 0.00 0.00 0.00 0.00 0.00 0.00 0.00 0.00 0.00 0.00 0.00 0.00 0.00 0.00 0.00 0.00 0.00 0.00 0.00 0.00 0.00 0.00 0.00 0.00 0.00 0.00 0.01 0.04 0.02 0.01 0.01 0.00 0.00 0.00 0.00 0.00 0.00 0.00 0.01 0.00 0.00
0.00 0.00 0.00 0.00 0.00 0.00 0.00 0.00 0.00 0.00 0.00 0.00 0.00 0.00 0.00 0.00 0.00 0.00 0.00 0.00 0.00 0.00 0.00 0.00 0.00 0.00 0.00 0.03 0.12 0.07 0.06 0.02 0.03 0.00 0.01 0.00 0.00 0.00 0.00 0.03 0.06 0.09 0.02
0.00 0.00 0.00 0.00 0.00 0.00 0.00 0.00 0.00 0.01 0.05 0.09 0.15 0.19 0.15 0.13 0.07 0.08 0.10 0.11 0.09 0.05 0.03 0.05 0.03 0.00 0.00 0.04 0.11 0.16 0.11 0.07 0.06 0.06 0.05 0.06 0.02 0.00 0.01 0.08 0.15 0.19 0.07
0.00 0.00 0.00 0.00 0.00 0.00 0.00 0.00 0.02 0.03 0.09 0.05 0.09 0.12 0.11 0.14 0.25 0.14 0.13 0.05 0.07 0.05 0.08 0.12 0.08 0.02 0.07 0.11 0.31 0.37 0.29 0.29 0.23 0.15 0.14 0.06 0.01 0.01 0.05 0.12 0.16 0.18 0.06
0.00 0.00 0.00 0.01 0.00 0.00 0.00 0.00 0.01 0.01 0.03 0.05 0.09 0.12 0.11 0.07 0.14 0.06 0.03 0.00 0.00 0.00 0.00 0.05 0.07 0.07 0.18 0.28 0.31 0.47 0.39 0.26 0.20 0.08 0.03 0.02 0.03 0.11 0.13 0.21 0.26 0.13 0.02
0.00 0.00 0.00 0.00 0.00 0.00 0.00 0.00 0.00 0.00 0.01 0.01 0.02 0.03 0.03 0.02 0.05 0.05 0.00 0.00 0.00 0.00 0.00 0.00 0.01 0.05 0.19 0.25 0.28 0.19 0.28 0.27 0.15 0.07 0.04 0.04 0.07 0.05 0.03 0.11 0.14 0.08 0.01
0.00 0.00 0.00 0.00 0.00 0.00 0.00 0.00 0.00 0.00 0.00 0.00 0.00 0.00 0.00 0.00 0.00 0.00 0.00 0.00 0.00 0.00 0.00 0.00 0.01 0.01 0.01 0.02 0.02 0.11 0.17 0.14 0.06 0.11 0.04 0.04 0.03 0.02 0.01 0.04 0.09 0.06 0.01
0.00 0.00 0.00 0.00 0.00 0.00 0.00 0.00 0.00 0.00 0.00 0.00 0.00 0.00 0.00 0.00 0.01 0.00 0.00 0.00 0.00 0.00 0.00 0.00 0.00 0.01 0.01 0.01 0.00 0.02 0.04 0.05 0.02 0.01 0.00 0.01 0.07 0.02 0.00 0.01 0.05 0.02 0.01
0.00 0.00 0.00 0.00 0.00 0.00 0.00 0.00 0.00 0.00 0.00 0.00 0.01 0.00 0.00 0.02 0.04 0.00 0.00 0.00 0.00 0.00 0.00 0.01 0.00 0.01 0.00 0.00 0.00 0.00 0.02 0.04 0.05 0.07 0.05 0.04 0.05 0.01 0.00 0.00 0.00 0.00 0.00
0.00 0.00 0.00 0.00 0.00 0.00 0.00 0.00 0.01 0.01 0.00 0.00 0.00 0.00 0.00 0.00 0.04 0.01 0.00 0.00 0.00 0.00 0.00 0.00 0.00 0.00 0.00 0.00 0.00 0.01 0.02 0.05 0.09 0.17 0.29 0.20 0.06 0.00 0.00 0.00 0.00 0.00 0.00
0.00 0.00 0.00 0.00 0.00 0.00 0.00 0.00 0.00 0.00 0.00 0.00 0.00 0.00 0.00 0.02 0.02 0.02 0.01 0.02 0.01 0.00 0.00 0.00 0.00 0.00 0.00 0.00 0.00 0.01 0.02 0.04 0.06 0.07 0.08 0.06 0.01 0.00 0.00 0.00 0.00 0.00 0.00
0.00 0.00 0.00 0.00 0.00 0.00 0.00 0.00 0.00 0.00 0.00 0.00 0.00 0.00 0.00 0.00 0.00 0.00 0.00 0.00 0.01 0.01 0.01 0.00 0.01 0.00 0.00 0.00 0.00 0.00 0.00 0.00 0.00 0.00 0.01 0.00 0.00 0.01 0.01 0.00 0.00 0.00 0.00
0.00 0.00 0.00 0.00 0.00 0.00 0.00 0.00 0.00 0.00 0.00 0.00 0.00 0.00 0.00 0.00 0.00 0.00 0.00 0.00 0.00 0.01 0.01 0.03 0.03 0.02 0.01 0.00 0.00 0.00 0.00 0.00 0.00 0.00 0.01 0.01 0.03 0.03 0.02 0.02 0.01 0.00 0.00
0.00 0.00 0.00 0.00 0.00 0.00 0.00 0.00 0.00 0.01 0.01 0.01 0.00 0.00 0.00 0.00 0.00 0.00 0.00 0.00 0.00 0.00 0.01 0.03 0.04 0.03 0.01 0.00 0.01 0.02 0.00 0.00 0.00 0.00 0.01 0.03 0.03 0.01 0.03 0.02 0.00 0.00 0.00
0.00 0.00 0.00 0.00 0.00 0.00 0.00 0.00 0.00 0.00 0.00 0.02 0.01 0.00 0.00 0.00 0.00 0.00 0.00 0.00 0.00 0.00 0.00 0.01 0.02 0.03 0.03 0.03 0.04 0.02 0.00 0.00 0.00 0.01 0.00 0.02 0.02 0.00 0.00 0.00 0.00 0.00 0.00
0.00 0.00 0.00 0.00 0.00 0.00 0.00 0.00 0.00 0.00 0.00 0.00 0.00 0.00 0.00 0.00 0.00 0.00 0.00 0.00 0.00 0.00 0.00 0.00 0.00 0.01 0.01 0.01 0.01 0.00 0.00 0.00 0.01 0.01 0.01 0.01 0.01 0.01 0.00 0.00 0.00 0.00 0.02
0.00 0.00 0.00 0.00 0.00 0.00 0.00 0.00 0.00 0.00 0.00 0.00 0.00 0.00 0.00 0.00 0.00 0.00 0.00 0.00 0.00 0.00 0.00 0.00 0.00 0.00 0.01 0.01 0.00 0.00 0.00 0.01 0.00 0.00 0.01 0.02 0.01 0.00 0.00 0.00 0.00 0.00 0.00
0.00 0.00 0.00 0.00 0.00 0.00 0.00 0.00 0.00 0.00 0.00 0.00 0.00 0.00 0.00 0.00 0.00 0.00 0.00 0.00 0.00 0.00 0.00 0.00 0.00 0.00 0.00 0.00 0.00 0.00 0.00 0.00 0.00 0.00 0.00 0.00 0.00 0.00 0.00 0.00 0.00 0.00 0.00
0.00 0.00 0.00 0.00 0.00 0.00 0.00 0.00 0.00 0.00 0.00 0.00 0.00 0.00 0.00 0.00 0.00 0.00 0.00 0.00 0.00 0.00 0.00 0.00 0.00 0.00 0.00 0.01 0.00 0.00 0.00 0.00 0.00 0.00 0.00 0.00 0.00 0.01 0.00 0.00 0.00 0.00 0.00
0.00 0.00 0.00 0.00 0.00 0.00 0.00 0.00 0.00 0.00 0.00 0.00 0.00 0.00 0.00 0.00 0.00 0.00 0.00 0.00 0.00 0.00 0.00 0.00 0.00 0.00 0.00 0.00 0.00 0.02 0.09 0.04 0.00 0.00 0.00 0.00 0.00 0.00 0.00 0.00 0.00 0.00 0.00
0.00 0.00 0.00 0.00 0.00 0.00 0.00 0.00 0.00 0.00 0.00 0.00 0.00 0.00 0.00 0.00 0.00 0.00 0.00 0.00 0.00 0.00 0.00 0.00 0.00 0.00 0.00 0.00 0.00 0.01 0.02 0.02 0.01 0.00 0.00 0.00 0.00 0.00 0.00 0.00 0.00 0.00 0.00
0.00 0.00 0.00 0.00 0.00 0.00 0.00 0.00 0.00 0.00 0.00 0.00 0.00 0.00 0.00 0.02 0.01 0.00 0.00 0.00 0.00 0.00 0.00 0.00 0.00 0.00 0.00 0.00 0.00 0.00 0.00 0.00 0.01 0.00 0.00 0.00 0.00 0.00 0.00 0.00 0.00 0.00 0.00
0.00 0.00 0.00 0.00 0.00 0.00 0.00 0.00 0.00 0.00 0.00 0.00 0.00 0.00 0.00 0.00 0.00 0.00 0.01 0.01 0.00 0.00 0.00 0.00 0.00 0.00 0.00 0.00 0.00 0.00 0.00 0.00 0.00 0.00 0.00 0.00 0.00 0.00 0.00 0.00 0.00 0.00 0.00
MSLP
1011.15 1011.77 1012.48 1013.02 1013.46 1013.89 1013.99 1014.22 1014.34 1014.28 1014.36 1014.65 1014.91 1015.02 1015.22 1015.30 1015.42 1015.70 1015.79 1015.67 1015.58 1015.64 1015.67 1015.60 1015.71 1015.93 1015.59 1015.17 1015.25 1015.45 1015.56 1015.68 1015.64 1015.73 1015.94 1016.37 1017.17 1017.59 1017.79 1018.44 1019.05 1019.47 1020.27
1010.64 1011.18 1011.71 1012.31 1012.72 1012.90 1013.29 1013.52 1013.79 1013.96 1014.06 1014.19 1014.41 1014.54 1014.69 1014.75 1014.77 1014.89 1015.16 1014.76 1015.21 1015.10 1015.10 1015.18 1015.30 1015.37 1015.54 1015.55 1015.30 1015.24 1015.43 1015.49 1015.80 1016.07 1016.40 1016.82 1017.21 1017.40 1017.30 1018.25 1018.52 1018.23 1018.92
1010.29 1010.80 1011.04 1011.51 1011.81 1012.02 1012.09 1012.60 1012.96 1013.28 1013.46 1013.53 1013.82 1013.91 1013.86 1013.90 1014.03 1014.21 1014.38 1014.35 1014.33 1014.29 1014.36 1014.43 1014.52 1014.68 1014.85 1014.71 1014.80 1014.79 1015.06 1015.70 1015.99 1016.56 1016.65 1016.50 1017.01 1017.46 1017.96 1018.09 1018.12 1017.49 1017.72
1010.20 1010.50 1010.82 1011.03 1011.15 1011.35 1011.51 1011.83 1012.04 1012.58 1013.08 1013.25 1013.27 1013.29 1013.53 1013.67 1013.65 1013.64 1013.64 1013.80 1013.82 1013.63 1013.59 1013.63 1013.67 1013.75 1013.95 1014.26 1014.45 1014.73 1015.12 1015.50 1016.26 1016.46 1016.38 1016.67 1017.05 1017.25 1017.79 1018.25 1018.00 1017.84 1017.73
1010.68 1010.76 1010.79 1011.05 1011.03 1011.23 1011.45 1011.50 1011.85 1012.18 1012.70 1013.25 1013.39 1013.41 1013.43 1013.23 1013.10 1013.09 1013.06 1013.07 1013.17 1013.16 1013.00 1013.04 1013.10 1013.17 1013.29 1013.50 1013.96 1014.52 1014.94 1015.61 1016.24 1016.36 1016.75 1017.22 1017.46 1017.51 1017.57 1017.71 1017.86 1017.95 1017.65
1010.80 1010.96 1011.19 1011.51 1011.63 1011.67 1011.78 1012.04 1012.29 1012.63 1012.84 1013.11 1013.09 1013.18 1012.89 1013.00 1012.40 1012.60 1013.17 1013.17 1013.04 1012.87 1012.75 1012.39 1012.63 1012.76 1012.82 1013.11 1013.30 1013.74 1014.21 1014.80 1015.68 1016.09 1016.60 1017.27 1017.49 1017.45 1017.28 1017.56 1017.61 1017.68 1017.83
1011.41 1011.55 1011.68 1011.73 1011.88 1012.13 1012.23 1012.43 1012.86 1012.83 1013.46 1013.21 1013.41 1013.50 1013.99 1014.13 1013.72 1013.48 1013.07 1012.94 1012.84 1012.47 1012.48 1012.51 1012.58 1011.98 1011.66 1012.11 1012.59 1013.16 1013.56 1013.86 1014.53 1015.34 1016.14 1016.18 1016.39 1016.94 1016.91 1017.19 1017.63 1017.43 1017.34
1011.84 1012.05 1012.16 1012.38 1012.64 1012.89 1013.10 1013.25 1013.40 1013.46 1013.33 1013.61 1013.41 1013.23 1013.41 1013.92 1013.67 1013.72 1013.57 1013.27 1012.83 1012.66 1012.37 1012.27 1012.39 1012.16 1011.93 1012.08 1012.14 1013.11 1013.29 1014.10 1014.25 1014.32 1014.94 1015.51 1015.88 1016.48 1016.68 1016.99 1017.41 1017.48 1017.08
1011.90 1012.06 1012.16 1012.34 1012.56 1012.88 1013.08 1013.10 1013.19 1013.27 1013.34 1013.29 1012.87 1013.01 1013.24 1013.47 1013.83 1013.80 1013.62 1013.13 1012.62 1012.15 1011.83 1011.88 1011.86 1011.86 1012.00 1012.33 1011.66 1012.27 1013.20 1013.81 1013.93 1014.27 1014.55 1015.09 1016.06 1016.39 1016.30 1017.10 1017.35 1017.42 1016.90
1012.38 1012.55 1012.64 1012.69 1012.64 1012.63 1012.75 1012.85 1013.01 1013.04 1012.90 1012.69 1012.64 1012.95 1013.27 1013.40 1013.53 1013.69 1013.81 1013.18 1012.05 1011.25 1010.99 1011.11 1011.62 1012.09 1012.37 1012.26 1012.20 1012.37 1012.85 1013.28 1014.01 1014.76 1015.19 1015.59 1016.00 1016.21 1016.25 1016.34 1016.49 1016.86 1016.50
1012.49 1012.68 1012.75 1012.77 1012.73 1012.82 1012.94 1012.97 1012.91 1012.88 1012.91 1012.76 1012.58 1012.51 1012.36 1012.25 1012.45 1013.06 1013.34 1013.17 1012.22 1011.30 1010.87 1010.82 1011.26 1012.14 1012.38 1012.53 1012.50 1012.61 1012.79 1013.04 1013.75 1014.26 1014.55 1015.21 1016.05 1015.97 1015.67 1015.77 1016.13 1016.35 1016.65
1012.48 1012.54 1012.72 1012.76 1012.52 1012.49 1012.79 1012.73 1012.63 1012.62 1012.48 1012.27 1012.05 1011.56 1010.70 1011.41 1012.41 1012.93 1013.05 1012.98 1012.82 1012.36 1011.41 1011.39 1011.94 1012.58 1012.77 1012.90 1012.96 1013.03 1013.08 1013.21 1013.52 1013.84 1014.34 1015.19 1015.50 1015.11 1015.01 1015.39 1016.15 1016.21 1016.29
1012.39 1012.51 1012.58 1012.53 1012.61 1012.66 1012.65 1012.55 1012.31 1012.36 1012.12 1011.93 1011.44 1011.24 1011.20 1011.63 1012.53 1013.03 1013.30 1013.17 1012.94 1012.75 1012.30 1012.30 1012.65 1012.71 1012.88 1013.18 1013.34 1013.39 1013.39 1013.50 1013.98 1014.33 1014.69 1015.02 1015.35 1014.65 1015.14 1016.02 1016.64 1016.74 1017.20
1012.42 1012.55 1012.54 1012.54 1012.62 1012.59 1011.91 1011.93 1011.99 1012.06 1012.27 1012.33 1012.04 1011.95 1011.85 1012.07 1012.71 1013.14 1013.24 1013.25 1013.02 1012.67 1012.63 1012.62 1012.85 1012.94 1012.72 1013.23 1013.48 1013.65 1013.83 1014.10 1014.22 1014.57 1014.97 1015.28 1015.29 1015.42 1015.88 1016.51 1017.02 1017.27 1017.80
1012.37 1012.34 1012.30 1012.08 1012.39 1012.16 1012.39 1012.62 1012.64 1013.40 1013.60 1013.50 1013.26 1013.06 1013.09 1013.06 1014.07 1014.47 1014.25 1013.43 1012.99 1012.71 1012.61 1012.43 1012.54 1012.48 1012.45 1012.53 1013.03 1013.30 1013.59 1014.07 1014.49 1014.66 1014.99 1015.15 1015.49 1015.75 1016.40 1017.00 1017.46 1017.57 1018.06
1011.96 1011.66 1011.60 1011.64 1011.68 1011.80 1011.88 1012.61 1013.53 1013.62 1014.00 1014.28 1014.41 1014.28 1013.97 1014.49 1014.52 1014.49 1014.21 1013.87 1013.56 1013.24 1012.71 1012.32 1012.00 1012.05 1012.16 1012.36 1012.78 1013.35 1013.87 1014.08 1014.18 1014.44 1014.89 1015.51 1015.88 1016.26 1016.89 1017.52 1017.73 1018.11 1018.42
1011.99 1011.88 1011.70 1011.92 1011.41 1011.64 1011.70 1011.85 1012.20 1013.87 1014.08 1014.24 1014.33 1014.60 1014.88 1014.81 1014.85 1014.48 1014.24 1013.95 1013.57 1013.16 1012.41 1012.10 1012.22 1012.30 1012.50 1012.66 1012.82 1013.08 1013.28 1013.75 1013.80 1014.63 1014.99 1015.58 1016.10 1016.71 1017.17 1017.55 1017.98 1018.47 1018.68
1012.00 1012.19 1012.03 1011.50 1011.38 1011.45 1011.42 1011.55 1011.63 1011.55 1012.23 1012.93 1013.86 1014.17 1014.66 1014.70 1014.66 1014.50 1014.24 1013.60 1013.05 1012.90 1012.44 1012.42 1012.43 1012.52 1012.69 1012.77 1012.91 1012.98 1013.52 1014.02 1014.44 1014.61 1014.93 1015.57 1016.10 1016.36 1017.12 1017.57 1017.94 1018.28 1018.36
1012.01 1011.72 1011.62 1011.22 1011.32 1011.58 1011.64 1011.22 1010.81 1011.00 1011.32 1011.64 1012.22 1013.80 1014.09 1014.10 1014.12 1013.93 1013.59 1012.75 1012.25 1012.13 1012.25 1012.41 1012.49 1012.46 1012.62 1012.73 1013.00 1013.36 1013.72 1014.03 1014.41 1014.78 1014.93 1015.37 1015.74 1016.32 1016.78 1017.46 1017.72 1018.09 1018.04
1011.52 1012.16 1012.19 1011.51 1010.84 1010.69 1010.37 1010.51 1010.70 1010.80 1010.94 1010.92 1011.23 1011.68 1012.80 1013.39 1012.82 1012.50 1012.19 1011.93 1011.57 1011.41 1011.49 1011.68 1012.18 1012.50 1012.68 1012.87 1013.18 1013.65 1014.05 1014.38 1014.65 1015.06 1015.42 1015.60 1015.78 1016.01 1016.88 1017.34 1017.59 1017.71 1017.88
1010.75 1011.56 1012.00 1011.70 1010.57 1010.52 1010.46 1010.48 1010.65 1010.79 1010.54 1010.52 1010.39 1011.41 1012.40 1012.34 1011.70 1011.40 1011.11 1010.92 1010.99 1011.00 1011.37 1011.54 1011.88 1012.18 1012.50 1012.82 1013.10 1013.32 1013.74 1014.12 1014.40 1014.76 1015.30 1015.54 1016.10 1016.60 1016.93 1017.22 1017.36 1017.62 1017.69
1010.65 1010.53 1010.67 1010.57 1010.70 1010.56 1010.49 1010.53 1010.55 1010.63 1010.54 1010.19 1010.04 1011.28 1011.95 1011.80 1011.27 1010.80 1010.68 1010.68 1010.69 1011.19 1011.36 1011.82 1011.79 1012.13 1012.28 1012.54 1012.74 1013.08 1013.49 1013.82 1014.13 1014.59 1014.97 1015.54 1016.16 1016.52 1016.73 1016.83 1016.82 1017.14 1017.35
1010.26 1010.08 1009.94 1010.17 1010.75 1011.09 1010.90 1010.20 1010.17 1010.26 1010.23 1010.25 1010.24 1010.47 1011.16 1010.90 1010.39 1010.21 1010.10 1010.21 1010.56 1010.93 1011.18 1011.62 1011.62 1012.02 1012.20 1012.50 1012.64 1012.71 1012.95 1013.25 1013.50 1014.19 1015.02 1015.43 1015.82 1016.19 1016.44 1016.61 1016.71 1017.10 1017.13
1009.87 1010.09 1009.93 1010.06 1010.66 1010.65 1009.96 1009.97 1009.93 1010.33 1010.16 1009.58 1009.51 1009.77 1009.92 1009.77 1009.71 1010.02 1010.06 1010.23 1010.52 1010.76 1010.88 1011.49 1011.85 1011.91 1012.09 1012.51 1012.47 1012.27 1012.14 1012.65 1012.94 1013.61 1014.30 1014.92 1015.29 1015.89 1016.13 1016.44 1016.61 1016.17 1016.27
1009.62 1009.62 1010.03 1010.13 1010.12 1010.13 1009.97 1009.93 1009.60 1009.57 1009.43 1009.40 1009.40 1009.33 1009.85 1010.39 1010.23 1009.86 1009.79 1010.15 1010.50 1010.77 1010.77 1010.93 1010.91 1011.21 1011.98 1012.55 1012.40 1012.74 1013.05 1013.06 1013.31 1013.69 1014.25 1014.95 1015.47 1015.67 1015.82 1016.20 1016.19 1015.73 1015.23
1009.69 1009.76 1009.77 1009.83 1010.07 1010.06 1009.88 1009.75 1009.56 1009.55 1009.52 1009.55 1009.49 1009.40 1009.39 1009.45 1009.50 1009.90 1010.29 1010.58 1010.79 1010.96 1010.93 1010.89 1011.12 1011.57 1012.25 1012.48 1012.72 1013.38 1013.83 1013.82 1013.95 1014.26 1014.53 1014.74 1015.12 1015.53 1015.38 1015.30 1015.56 1014.85 1014.95
Thickness
5831 5828 5823 5820 5818 5815 5814 5813 5814 5815 5814 5810 5807 5805 5802 5801 5801 5798 5797 5800 5800 5799 5799 5798 5795 5794 5794 5796 5794 5789 5784 5781 5771 5776 5776 5772 5761 5755 5751 5744 5738 5733 5725
5835 5831 5827 5824 5821 5819 5816 5816 5815 5813 5813 5812 5809 5807 5805 5804 5804 5802 5797 5801 5797 5797 5798 5798 5795 5796 5791 5790 5789 5785 5781 5780 5773 5762 5764 5762 5756 5753 5751 5743 5738 5737 5730
5837 5832 5830 5827 5825 5823 5824 5821 5819 5816 5814 5814 5811 5808 5807 5807 5805 5803 5801 5800 5799 5799 5798 5796 5794 5794 5790 5789 5788 5785 5782 5775 5769 5759 5756 5761 5755 5749 5742 5739 5737 5739 5735
5834 5832 5829 5828 5829 5828 5827 5825 5823 5818 5813 5810 5810 5809 5806 5804 5803 5803 5803 5800 5799 5801 5801 5799 5797 5795 5791 5787 5784 5782 5777 5770 5763 5757 5756 5753 5748 5747 5739 5730 5729 5731 5728
5825 5825 5825 5826 5828 5826 5823 5823 5820 5817 5811 5805 5802 5802 5801 5802 5804 5801 5800 5799 5798 5797 5799 5799 5798 5796 5792 5789 5782 5776 5774 5763 5755 5752 5745 5740 5736 5736 5730 5728 5722 5721 5718
5820 5818 5819 5817 5817 5816 5815 5811 5809 5805 5804 5801 5798 5792 5793 5794 5800 5797 5793 5791 5792 5792 5791 5795 5794 5792 5790 5784 5781 5776 5775 5765 5753 5747 5739 5729 5725 5728 5728 5722 5720 5712 5701
5810 5810 5810 5810 5808 5806 5805 5802 5796 5795 5790 5791 5790 5788 5780 5781 5781 5779 5783 5786 5783 5784 5785 5784 5784 5790 5791 5787 5779 5773 5768 5767 5760 5747 5736 5732 5728 5724 5723 5717 5711 5709 5701
5801 5800 5800 5797 5794 5793 5791 5788 5786 5784 5782 5772 5778 5778 5777 5773 5773 5772 5772 5775 5775 5775 5779 5780 5777 5778 5777 5771 5771 5763 5760 5753 5750 5748 5742 5733 5728 5720 5718 5714 5707 5702 5706
5795 5794 5794 5792 5789 5785 5782 5781 5779 5777 5774 5773 5776 5773 5770 5767 5762 5761 5763 5767 5769 5772 5775 5774 5773 5771 5769 5760 5762 5750 5748 5745 5745 5742 5737 5729 5719 5715 5715 5709 5701 5696 5695
5785 5785 5786 5785 5783 5781 5779 5775 5772 5770 5768 5769 5766 5761 5756 5755 5754 5751 5751 5756 5762 5768 5770 5770 5765 5761 5756 5755 5752 5748 5744 5743 5739 5731 5728 5722 5713 5709 5708 5706 5703 5691 5692
5783 5781 5780 5779 5778 5775 5771 5768 5765 5762 5758 5757 5755 5755 5755 5756 5754 5745 5742 5745 5751 5757 5759 5760 5759 5749 5747 5745 5745 5744 5739 5739 5734 5728 5725 5717 5704 5703 5703 5702 5698 5694 5687
5781 5779 5776 5775 5776 5774 5766 5763 5761 5757 5753 5750 5750 5752 5760 5755 5745 5738 5734 5734 5735 5737 5744 5747 5743 5735 5734 5733 5733 5731 5730 5729 5726 5722 5715 5703 5698 5699 5702 5697 5690 5688 5685
5778 5775 5774 5774 5771 5766 5761 5757 5756 5752 5748 5745 5747 5745 5744 5742 5734 5728 5724 5724 5724 5725 5730 5728 5725 5725 5725 5724 5721 5720 5721 5720 5714 5708 5703 5696 5690 5699 5693 5685 5678 5678 5675
5773 5771 5771 5768 5764 5763 5766 5761 5757 5751 5744 5740 5738 5734 5734 5731 5724 5721 5720 5718 5717 5719 5718 5719 5717 5717 5721 5717 5714 5712 5711 5707 5705 5699 5697 5691 5688 5688 5682 5676 5672 5669 5664
5772 5771 5769 5770 5764 5763 5758 5753 5749 5739 5733 5732 5729 5724 5718 5716 5705 5699 5702 5710 5713 5714 5714 5715 5714 5715 5715 5715 5710 5708 5704 5698 5693 5692 5688 5686 5683 5680 5672 5667 5662 5661 5656
5773 5775 5773 5771 5769 5765 5761 5752 5737 5734 5726 5721 5714 5710 5709 5698 5694 5694 5697 5699 5700 5701 5707 5708 5711 5711 5710 5709 5704 5698 5692 5690 5690 5688 5685 5677 5673 5668 5662 5657 5655 5650 5645
5772 5773 5773 5767 5769 5763 5760 5757 5752 5733 5724 5720 5715 5706 5697 5694 5693 5696 5696 5696 5696 5699 5706 5707 5704 5703 5701 5699 5698 5694 5690 5689 5690 5681 5678 5672 5666 5659 5656 5653 5649 5642 5641
5773 5765 5769 5771 5769 5764 5761 5757 5756 5754 5745 5738 5720 5714 5702 5697 5696 5696 5693 5697 5700 5697 5701 5697 5696 5698 5697 5697 5695 5694 5688 5684 5679 5677 5674 5667 5662 5660 5653 5648 5645 5640 5639
5771 5774 5774 5774 5769 5761 5758 5759 5761 5756 5750 5745 5738 5718 5711 5706 5703 5702 5701 5709 5709 5706 5703 5700 5700 5700 5698 5696 5691 5687 5683 5680 5675 5671 5669 5665 5661 5655 5651 5644 5643 5636 5637
5774 5766 5763 5769 5771 5768 5768 5761 5756 5752 5749 5747 5743 5739 5726 5717 5721 5722 5717 5716 5717 5716 5713 5709 5703 5699 5696 5692 5688 5683 5678 5674 5669 5664 5659 5657 5656 5654 5644 5640 5637 5635 5632
5779 5771 5764 5764 5770 5767 5763 5759 5755 5750 5749 5748 5749 5738 5724 5727 5728 5728 5726 5725 5721 5719 5714 5710 5705 5701 5696 5692 5688 5684 5678 5673 5668 5663 5657 5654 5649 5644 5640 5637 5634 5631 5631
5775 5776 5774 5771 5767 5764 5761 5759 5755 5750 5749 5749 5751 5738 5726 5728 5730 5730 5728 5726 5725 5719 5715 5707 5705 5699 5695 5691 5687 5681 5675 5670 5666 5660 5656 5650 5644 5640 5638 5636 5635 5629 5627
5775 5775 5775 5771 5763 5753 5755 5760 5757 5753 5750 5748 5747 5744 5735 5733 5734 5732 5731 5728 5724 5718 5714 5707 5704 5697 5692 5687 5684 5681 5677 5672 5669 5661 5651 5646 5643 5639 5637 5634 5632 5626 5623
5774 5770 5770 5767 5759 5757 5761 5758 5757 5748 5748 5752 5751 5747 5744 5741 5738 5733 5731 5727 5722 5717 5713 5704 5698 5695 5690 5683 5681 5680 5680 5673 5669 5661 5654 5648 5644 5637 5635 5631 5628 5630 5627
5772 5770 5765 5762 5761 5758 5757 5755 5756 5754 5753 5751 5749 5747 5739 5731 5731 5732 5731 5725 5719 5714 5711 5706 5702 5696 5686 5679 5676 5671 5670 5668 5663 5658 5652 5645 5639 5637 5634 5628 5627 5629 5633
5767 5765 5764 5763 5758 5756 5754 5752 5751 5750 5747 5745 5743 5741 5739 5736 5734 5729 5723 5718 5714 5709 5707 5702 5697 5690 5681 5675 5671 5664 5660 5658 5655 5651 5647 5644 5640 5634 5634 5632 5628 5634 5633